Flag for Canada Weather past 2 weeks in Pickering, Ontario, Canada

Now
52 °F

Passing clouds.


Feels Like: 51 °F
Forecast: 51 / 76 °F
Wind: 3 mph from Southeast

Location: Toronto Buttonville

Current Time: May 4, 2015 at 8:15:58 AM

Latest Report: May 4, 2015 at 7:00 AM


Visibility: 15 mi

Pressure: 30.04 "Hg

Humidity: 77%

Dew point: 45 °F

Location of PickeringLocation

Historic Weather in Pickering — Graph

°F

Pickering temperature yesterday

Maximum temperature yesterday: 79 °F (at 4:00 PM)
Minimum temperature yesterday: 46 °F (at 4:00 AM)
Average temperature yesterday: 64 °F

Past Weeks' High & Low Weather Summary

 TemperatureHumidityPressure
High79 °F (May 3, 4:00 PM)100% (Apr 20, 2:00 AM)30.29 "Hg (Apr 20, 2:00 AM)
Low27 °F (Apr 25, 6:00 AM)27% (May 2, 5:00 PM)29.38 "Hg (Apr 20, 6:00 PM)
Average49 °F62%29.85 "Hg
* Reported Apr 19 6:00 AM — May 4 6:00 AM, Pickering, Weather by CustomWeather, © 2015

Note: Actual official high and low records may vary slightly from our data, if they occured in-between our weather recording intervals... More about our weather records

Advertising

Pickering weather history for previous 24 hours

 ConditionsComfort  
Time TempWeatherWind HumidityBarometerVisibility
6:00 AM
Mon, May 4
52 °FPassing clouds.2 mph77%30.04 "Hg15 mi
5:00 AM52 °FPassing clouds.3 mph77%30.03 "Hg15 mi
4:00 AM52 °FPassing clouds.No wind77%30.03 "Hg15 mi
3:00 AM52 °FPassing clouds.2 mph77%30.04 "Hg15 mi
2:00 AM54 °FPassing clouds.No wind72%30.04 "Hg15 mi
1:00 AM61 °FPassing clouds.2 mph48%30.04 "Hg15 mi
12:00 AM59 °FPassing clouds.2 mph55%30.03 "Hg15 mi
11:00 PM
Sun, May 3
66 °FPassing clouds.5 mph40%30.03 "Hg15 mi
10:00 PM68 °FPassing clouds.5 mph35%30.03 "Hg15 mi
9:00 PM72 °FScattered clouds.9 mph29%30.02 "Hg14 mi
8:00 PM75 °FScattered clouds.14 mph29%30.00 "Hg14 mi
7:00 PM73 °FScattered clouds.10 mph31%29.98 "Hg15 mi
6:00 PM75 °FScattered clouds.16 mph29%29.99 "Hg15 mi
5:00 PM75 °FScattered clouds.14 mph31%29.98 "Hg15 mi
4:00 PM79 °FScattered clouds.12 mph28%29.99 "Hg15 mi
3:00 PM75 °FScattered clouds.10 mph29%30.00 "Hg15 mi
2:00 PM77 °FScattered clouds.10 mph30%30.01 "Hg15 mi
1:00 PM77 °FPassing clouds.9 mph28%30.03 "Hg15 mi
12:00 PM73 °FPassing clouds.9 mph33%30.04 "Hg15 mi
11:00 AM70 °FPassing clouds.2 mph43%30.04 "Hg15 mi
10:00 AM64 °FPartly sunny.5 mph49%30.04 "Hg15 mi
9:00 AM61 °FPartly sunny.5 mph52%30.03 "Hg15 mi
8:00 AM55 °FPartly sunny.No wind63%30.02 "Hg15 mi
Weather by CustomWeather, © 2015

See weather overviewHow to use our weather pages